CZ-2D DEB

Satellite information

Favourite Embed

Satellite Type and Status

DEBRISIN ORBIT

Key statistics

Satellite CZ-2D DEB at a glance.

Uptime

4977

Days in orbit

Revolutions

≈ 14.5

Per day

Orbit

SSO

Sun Synchronous Orbit

Inclination

98.3

Latest

Satellite identification and parameters

Extended collection of information and parameters for CZ-2D DEB.

Object identification

Identified? True

Debris? True

Object name: CZ-2D DEB

International designator: 2011-068D

Object number (NORAD): 38176

Object ID (CCSDS): 38176

Country: PEOPLES REPUBLIC OF CHINA (PRC)

Current information (Y/N): Y

RCS size: SMALL

Orbital parameters

Period: 99.456 minutes

Inclination: 98.2821 deg

SMA: 7110.726 km

Apoapsis: 809.302 km

Periapsis: 655.881 km

RAAN: 190.436 deg

Eccentricy: 0.010788

Argument of periapsis: 139.5085 deg

Mean anomaly: 221.4199 deg

Mean motion: 14.47877445 rev/day

Mean motion (dot): 0.00001689 rev/day2

B* drag term: 0.00043545 1/REarth

Two-line elements (TLE)

Creation date: July 5, 2025, 5:45 p.m.

Reference frame: TEME

Reference center: EARTH

Epoch: July 5, 2025, 5:36 a.m. UTC

TLE line 0: 0 CZ-2D DEB

TLE line 1: 1 38176U 11068D 25186.23362683 .00001689 00000-0 43545-3 0 9994

TLE line 2: 2 38176 98.2821 190.4360 0107880 139.5085 221.4199 14.47877445711496

Live tracking on map

Real-time ground track for satellite CZ-2D DEB.

In-orbit conjunctions

A list of the most updated potential collisions computed for object CZ-2D DEB.

Target Orbit TCA Probability of collision Miss distance Type
IRIDIUM 24 LEO 2025-01-03 00:48:05 0.0003401523 130.0 (m) PAYLOAD
IRIDIUM 33 DEB LEO 2024-12-20 11:31:42 0.0001473251 497.0 (m) DEBRIS
DELTA 1 DEB SSO 2024-09-10 16:20:20 0.000140115 43.0 (m) DEBRIS
SL-8 R/B LEO 2024-08-29 23:30:56 0.0001127681 842.0 (m) ROCKET BODY

Associated space launch

CZ-2D DEB was lifted into orbit during the mission ‘Long March 2D | Shiyan Weixing 4 & Chuang Xin 1C’, on board a Long March 2D space rocket.

The launch took place on Nov. 20, 2011, 12:15 a.m. from Launch Area 4 (SLS-2 / 603).

For more information about the launch, click the button.

Launch to space Long March 2D | Shiyan Weixing 4 & Chuang Xin 1C
Long March 2D | Shiyan Weixing 4 & Chuang Xin 1C

Agency: N/A

Status: Launch Successful

Launch date: Nov. 20, 2011, 12:15 a.m. UTC

Rocket: Long March 2D

Launch pad: Launch Area 4 (SLS-2 / 603)

Location: Jiuquan Satellite Launch Center, People's Republic of China

...

Latest news about this satellite

There are no fresh news available about this satellite. Check back as we update our databases every day.


Newsletter sign-up

Weekly statistics, charts and insights to help you stay on top of the space industry.